Location: Bittkow
(50.3000°N, 19.0000°E)
Time: 06:18:19
(UTC+00:00)

Cosmos 220 Rocket - Pass Details

Date: 19 September 2020
Orbit: 574 x 618 km, 74.0° (Epoch: 18 October)

Event Time Altitude Azimuth Distance (km) Brightness Sun altitude
Exits shadow 01:48:13 58° 344° (NNW) 681 4.2 -24.4°
Drops below altitude 10° 01:51:52 10° 20° (NNE) 1,916 7.3 -23.9°
Sets 01:54:08 0° 23° (NNE) 2,827 8.3 -23.6°
